contact:dominique.lefevre@mio.osupytheas.fr, maurice.libes@osupytheas.fr, didier.mallarino@osupytheas.fr
Project:EMSO http://www.emso-fr.org/EMSO-France
Depth: 2436.0 m
Title:EMSO Ligure Ouest : Data MII capteur OXYGEN
DateTime,Latitude,Longitude,Optode-Type,Optode_Serial,Oxygen,Saturation_Oxygen,Temperature
DateTime,Latitude,Longitude,Optode-Type,Optode_Serial,µmol.l-1,%,degC
2019-06-12T00:01:10,42.805,6.029,4330,1995,195.106,59.668,13.290
2019-06-12T00:04:10,42.805,6.029,4330,1995,195.026,59.643,13.289
2019-06-12T00:07:10,42.805,6.029,4330,1995,195.094,59.663,13.289
2019-06-12T00:10:10,42.805,6.029,4330,1995,195.158,59.683,13.289
2019-06-12T00:13:10,42.805,6.029,4330,1995,195.063,59.654,13.289
2019-06-12T00:16:10,42.805,6.029,4330,1995,195.096,59.664,13.289
2019-06-12T00:19:10,42.805,6.029,4330,1995,195.055,59.652,13.289
2019-06-12T00:22:10,42.805,6.029,4330,1995,195.100,59.665,13.289
2019-06-12T00:25:10,42.805,6.029,4330,1995,195.083,59.659,13.288
2019-06-12T00:28:10,42.805,6.029,4330,1995,195.089,59.662,13.288
2019-06-12T00:31:10,42.805,6.029,4330,1995,195.073,59.656,13.288
2019-06-12T00:34:10,42.805,6.029,4330,1995,195.102,59.665,13.288
2019-06-12T00:37:10,42.805,6.029,4330,1995,195.119,59.671,13.288
2019-06-12T00:40:10,42.805,6.029,4330,1995,195.116,59.669,13.288
2019-06-12T00:43:10,42.805,6.029,4330,1995,195.103,59.665,13.288
2019-06-12T00:46:10,42.805,6.029,4330,1995,195.142,59.677,13.288
2019-06-12T00:49:10,42.805,6.029,4330,1995,195.094,59.663,13.288
2019-06-12T00:52:10,42.805,6.029,4330,1995,195.118,59.671,13.289
2019-06-12T00:55:10,42.805,6.029,4330,1995,195.153,59.681,13.288
2019-06-12T00:58:10,42.805,6.029,4330,1995,195.121,59.673,13.289
2019-06-12T01:01:10,42.805,6.029,4330,1995,195.106,59.668,13.290
2019-06-12T01:04:10,42.805,6.029,4330,1995,195.094,59.664,13.289
2019-06-12T01:07:10,42.805,6.029,4330,1995,195.097,59.664,13.289
2019-06-12T01:10:10,42.805,6.029,4330,1995,195.108,59.669,13.289
2019-06-12T01:13:10,42.805,6.029,4330,1995,195.105,59.667,13.289
2019-06-12T01:16:10,42.805,6.029,4330,1995,195.119,59.671,13.289
2019-06-12T01:19:10,42.805,6.029,4330,1995,195.099,59.667,13.290
2019-06-12T01:22:10,42.805,6.029,4330,1995,195.089,59.663,13.289
2019-06-12T01:25:10,42.805,6.029,4330,1995,195.121,59.673,13.290
2019-06-12T01:28:10,42.805,6.029,4330,1995,195.109,59.668,13.289
2019-06-12T01:31:10,42.805,6.029,4330,1995,195.151,59.682,13.289
2019-06-12T01:34:09,42.805,6.029,4330,1995,195.056,59.652,13.289
2019-06-12T01:37:09,42.805,6.029,4330,1995,195.069,59.657,13.289
2019-06-12T01:40:10,42.805,6.029,4330,1995,195.094,59.664,13.289
2019-06-12T01:43:10,42.805,6.029,4330,1995,195.122,59.673,13.289
2019-06-12T01:46:10,42.805,6.029,4330,1995,195.093,59.666,13.291
2019-06-12T01:49:09,42.805,6.029,4330,1995,195.065,59.655,13.289
2019-06-12T01:52:10,42.805,6.029,4330,1995,195.078,59.660,13.290
2019-06-12T01:55:10,42.805,6.029,4330,1995,195.055,59.653,13.290
2019-06-12T01:58:10,42.805,6.029,4330,1995,195.029,59.646,13.290
2019-06-12T02:01:09,42.805,6.029,4330,1995,195.062,59.656,13.290
2019-06-12T02:04:10,42.805,6.029,4330,1995,195.108,59.669,13.290
2019-06-12T02:07:09,42.805,6.029,4330,1995,195.057,59.653,13.290
2019-06-12T02:10:09,42.805,6.029,4330,1995,195.088,59.664,13.291
2019-06-12T02:13:10,42.805,6.029,4330,1995,195.065,59.657,13.290
2019-06-12T02:16:09,42.805,6.029,4330,1995,195.060,59.654,13.290
2019-06-12T02:19:09,42.805,6.029,4330,1995,195.026,59.644,13.290
2019-06-12T02:22:09,42.805,6.029,4330,1995,195.026,59.644,13.290
2019-06-12T02:25:09,42.805,6.029,4330,1995,195.044,59.650,13.290
2019-06-12T02:28:09,42.805,6.029,4330,1995,195.003,59.637,13.290
2019-06-12T02:31:09,42.805,6.029,4330,1995,194.988,59.631,13.289
2019-06-12T02:34:09,42.805,6.029,4330,1995,195.052,59.650,13.288
2019-06-12T02:37:09,42.805,6.029,4330,1995,195.031,59.645,13.289
2019-06-12T02:40:09,42.805,6.029,4330,1995,195.049,59.649,13.288
2019-06-12T02:43:09,42.805,6.029,4330,1995,194.998,59.634,13.289
2019-06-12T02:46:09,42.805,6.029,4330,1995,195.031,59.644,13.289
2019-06-12T02:49:09,42.805,6.029,4330,1995,195.009,59.638,13.289
2019-06-12T02:52:09,42.805,6.029,4330,1995,194.999,59.634,13.289
2019-06-12T02:55:09,42.805,6.029,4330,1995,195.028,59.644,13.289
2019-06-12T02:58:09,42.805,6.029,4330,1995,195.032,59.644,13.288
2019-06-12T03:01:09,42.805,6.029,4330,1995,195.007,59.637,13.289
2019-06-12T03:04:09,42.805,6.029,4330,1995,195.001,59.634,13.288
2019-06-12T03:07:09,42.805,6.029,4330,1995,194.991,59.631,13.288
2019-06-12T03:10:09,42.805,6.029,4330,1995,195.010,59.637,13.288
2019-06-12T03:13:09,42.805,6.029,4330,1995,194.965,59.624,13.289
2019-06-12T03:16:09,42.805,6.029,4330,1995,195.002,59.635,13.289
2019-06-12T03:19:09,42.805,6.029,4330,1995,194.988,59.631,13.289
2019-06-12T03:22:09,42.805,6.029,4330,1995,194.984,59.630,13.289
2019-06-12T03:25:09,42.805,6.029,4330,1995,194.976,59.628,13.289
2019-06-12T03:28:09,42.805,6.029,4330,1995,195.002,59.635,13.289
2019-06-12T03:31:09,42.805,6.029,4330,1995,194.998,59.634,13.289
2019-06-12T03:34:09,42.805,6.029,4330,1995,194.988,59.631,13.289
2019-06-12T03:37:09,42.805,6.029,4330,1995,194.981,59.629,13.289
2019-06-12T03:40:09,42.805,6.029,4330,1995,194.990,59.632,13.289
2019-06-12T03:43:09,42.805,6.029,4330,1995,194.972,59.626,13.289
2019-06-12T03:46:09,42.805,6.029,4330,1995,194.985,59.632,13.290
2019-06-12T03:49:09,42.805,6.029,4330,1995,194.958,59.623,13.290
2019-06-12T03:52:09,42.805,6.029,4330,1995,194.963,59.624,13.289
2019-06-12T03:55:09,42.805,6.029,4330,1995,194.921,59.612,13.290
2019-06-12T03:58:09,42.805,6.029,4330,1995,194.924,59.613,13.290
2019-06-12T04:01:09,42.805,6.029,4330,1995,194.936,59.617,13.290
2019-06-12T04:04:09,42.805,6.029,4330,1995,194.969,59.627,13.290
2019-06-12T04:07:09,42.805,6.029,4330,1995,194.973,59.627,13.289
2019-06-12T04:10:09,42.805,6.029,4330,1995,194.930,59.616,13.291
2019-06-12T04:13:09,42.805,6.029,4330,1995,194.934,59.616,13.290
2019-06-12T04:16:09,42.805,6.029,4330,1995,194.936,59.616,13.290
2019-06-12T04:19:09,42.805,6.029,4330,1995,194.906,59.610,13.292
2019-06-12T04:22:09,42.805,6.029,4330,1995,194.931,59.615,13.290
2019-06-12T04:25:09,42.805,6.029,4330,1995,194.829,59.585,13.291
2019-06-12T04:28:09,42.805,6.029,4330,1995,194.844,59.590,13.291
2019-06-12T04:31:09,42.805,6.029,4330,1995,194.863,59.594,13.290
2019-06-12T04:34:09,42.805,6.029,4330,1995,194.879,59.600,13.290
2019-06-12T04:37:09,42.805,6.029,4330,1995,194.909,59.608,13.289
2019-06-12T04:40:09,42.805,6.029,4330,1995,194.839,59.586,13.289
2019-06-12T04:43:09,42.805,6.029,4330,1995,194.842,59.587,13.289
2019-06-12T04:46:09,42.805,6.029,4330,1995,194.881,59.600,13.290
2019-06-12T04:49:09,42.805,6.029,4330,1995,194.858,59.593,13.290
2019-06-12T04:52:09,42.805,6.029,4330,1995,194.834,59.586,13.290
2019-06-12T04:55:09,42.805,6.029,4330,1995,194.869,59.595,13.289
2019-06-12T04:58:09,42.805,6.029,4330,1995,194.903,59.605,13.288
2019-06-12T05:01:09,42.805,6.029,4330,1995,194.841,59.586,13.289
2019-06-12T05:04:09,42.805,6.029,4330,1995,194.889,59.600,13.288
2019-06-12T05:07:09,42.805,6.029,4330,1995,194.821,59.580,13.289
2019-06-12T05:10:09,42.805,6.029,4330,1995,194.834,59.584,13.289
2019-06-12T05:13:09,42.805,6.029,4330,1995,194.840,59.585,13.288
2019-06-12T05:16:09,42.805,6.029,4330,1995,194.899,59.603,13.288
2019-06-12T05:19:09,42.805,6.029,4330,1995,194.809,59.576,13.288
2019-06-12T05:22:09,42.805,6.029,4330,1995,194.859,59.591,13.288
2019-06-12T05:25:09,42.805,6.029,4330,1995,194.812,59.577,13.289
2019-06-12T05:28:09,42.805,6.029,4330,1995,194.860,59.592,13.289
2019-06-12T05:31:09,42.805,6.029,4330,1995,194.870,59.594,13.288
2019-06-12T05:34:09,42.805,6.029,4330,1995,194.838,59.585,13.289
2019-06-12T05:37:09,42.805,6.029,4330,1995,194.806,59.575,13.289
2019-06-12T05:40:09,42.805,6.029,4330,1995,194.782,59.568,13.289
2019-06-12T05:43:09,42.805,6.029,4330,1995,194.801,59.574,13.289
2019-06-12T05:46:09,42.805,6.029,4330,1995,194.845,59.587,13.289
2019-06-12T05:49:09,42.805,6.029,4330,1995,194.790,59.570,13.289
2019-06-12T05:52:09,42.805,6.029,4330,1995,194.867,59.594,13.289
2019-06-12T05:58:09,42.805,6.029,4330,1995,194.809,59.576,13.289
2019-06-12T06:01:09,42.805,6.029,4330,1995,194.869,59.595,13.289
2019-06-12T06:04:09,42.805,6.029,4330,1995,194.802,59.575,13.289
2019-06-12T06:07:09,42.805,6.029,4330,1995,194.840,59.587,13.290
2019-06-12T06:10:09,42.805,6.029,4330,1995,194.812,59.579,13.290
2019-06-12T06:13:09,42.805,6.029,4330,1995,194.823,59.581,13.289
2019-06-12T06:16:09,42.805,6.029,4330,1995,194.838,59.586,13.289
2019-06-12T06:19:09,42.805,6.029,4330,1995,194.835,59.586,13.290
2019-06-12T06:22:09,42.805,6.029,4330,1995,194.859,59.594,13.290
2019-06-12T06:25:09,42.805,6.029,4330,1995,194.900,59.605,13.290
2019-06-12T06:28:09,42.805,6.029,4330,1995,194.911,59.609,13.290
2019-06-12T06:31:09,42.805,6.029,4330,1995,194.935,59.616,13.289
2019-06-12T06:34:09,42.805,6.029,4330,1995,194.904,59.608,13.291
2019-06-12T06:37:09,42.805,6.029,4330,1995,194.867,59.596,13.291
2019-06-12T06:40:09,42.805,6.029,4330,1995,194.819,59.581,13.290
2019-06-12T06:43:09,42.805,6.029,4330,1995,194.867,59.595,13.290
2019-06-12T06:46:09,42.805,6.029,4330,1995,194.727,59.553,13.290
2019-06-12T06:49:09,42.805,6.029,4330,1995,194.811,59.578,13.290
2019-06-12T06:52:09,42.805,6.029,4330,1995,194.864,59.594,13.290
2019-06-12T06:55:09,42.805,6.029,4330,1995,194.841,59.588,13.291
2019-06-12T06:58:09,42.805,6.029,4330,1995,194.813,59.579,13.290
2019-06-12T07:01:09,42.805,6.029,4330,1995,194.828,59.583,13.290
2019-06-12T07:04:09,42.805,6.029,4330,1995,194.724,59.551,13.289
2019-06-12T07:07:09,42.805,6.029,4330,1995,194.767,59.564,13.289
2019-06-12T07:10:09,42.805,6.029,4330,1995,194.786,59.570,13.289
2019-06-12T07:13:09,42.805,6.029,4330,1995,194.746,59.557,13.289
2019-06-12T07:16:09,42.805,6.029,4330,1995,194.775,59.567,13.290
2019-06-12T07:19:09,42.805,6.029,4330,1995,194.785,59.570,13.289
2019-06-12T07:22:09,42.805,6.029,4330,1995,194.715,59.548,13.289
2019-06-12T07:25:09,42.805,6.029,4330,1995,194.765,59.564,13.289
2019-06-12T07:28:09,42.805,6.029,4330,1995,194.728,59.552,13.289
2019-06-12T07:31:09,42.805,6.029,4330,1995,194.717,59.549,13.289
2019-06-12T07:34:09,42.805,6.029,4330,1995,194.693,59.541,13.289
2019-06-12T07:37:09,42.805,6.029,4330,1995,194.732,59.553,13.289
2019-06-12T07:40:09,42.805,6.029,4330,1995,194.769,59.564,13.288
2019-06-12T07:43:09,42.805,6.029,4330,1995,194.725,59.550,13.288
2019-06-12T07:46:09,42.805,6.029,4330,1995,194.744,59.557,13.289
2019-06-12T07:49:09,42.805,6.029,4330,1995,194.749,59.559,13.289
2019-06-12T07:52:09,42.805,6.029,4330,1995,194.758,59.561,13.289
2019-06-12T07:55:09,42.805,6.029,4330,1995,194.810,59.576,13.288
2019-06-12T07:58:09,42.805,6.029,4330,1995,194.747,59.557,13.289
2019-06-12T08:01:09,42.805,6.029,4330,1995,194.758,59.560,13.288
2019-06-12T08:04:09,42.805,6.029,4330,1995,194.697,59.542,13.289
2019-06-12T08:07:09,42.805,6.029,4330,1995,194.713,59.548,13.289
2019-06-12T08:10:09,42.805,6.029,4330,1995,194.706,59.546,13.290
2019-06-12T08:13:09,42.805,6.029,4330,1995,194.737,59.555,13.289
2019-06-12T08:16:09,42.805,6.029,4330,1995,194.723,59.551,13.290
2019-06-12T08:19:09,42.805,6.029,4330,1995,194.627,59.521,13.289
2019-06-12T08:22:09,42.805,6.029,4330,1995,194.698,59.542,13.289
2019-06-12T08:25:09,42.805,6.029,4330,1995,194.679,59.538,13.290
2019-06-12T08:28:09,42.805,6.029,4330,1995,194.682,59.538,13.289
2019-06-12T08:31:09,42.805,6.029,4330,1995,194.731,59.554,13.290
2019-06-12T08:34:09,42.805,6.029,4330,1995,194.715,59.549,13.290
2019-06-12T08:37:09,42.805,6.029,4330,1995,194.748,59.558,13.289
2019-06-12T08:40:09,42.805,6.029,4330,1995,194.732,59.554,13.290
2019-06-12T08:43:09,42.805,6.029,4330,1995,194.720,59.551,13.290
2019-06-12T08:46:09,42.805,6.029,4330,1995,194.671,59.536,13.290
2019-06-12T08:49:09,42.805,6.029,4330,1995,194.671,59.536,13.290
2019-06-12T08:52:09,42.805,6.029,4330,1995,194.689,59.541,13.290
2019-06-12T08:55:09,42.805,6.029,4330,1995,194.776,59.567,13.289
2019-06-12T08:58:09,42.805,6.029,4330,1995,194.675,59.539,13.291
2019-06-12T09:01:09,42.805,6.029,4330,1995,194.689,59.541,13.290
2019-06-12T09:04:09,42.805,6.029,4330,1995,194.666,59.534,13.290
2019-06-12T09:07:09,42.805,6.029,4330,1995,194.752,59.561,13.291
2019-06-12T09:10:09,42.805,6.029,4330,1995,194.674,59.537,13.290
2019-06-12T09:13:09,42.805,6.029,4330,1995,194.775,59.570,13.292
2019-06-12T09:16:09,42.805,6.029,4330,1995,194.796,59.573,13.289
2019-06-12T09:19:09,42.805,6.029,4330,1995,194.778,59.570,13.291
2019-06-12T09:22:09,42.805,6.029,4330,1995,194.784,59.569,13.289
2019-06-12T09:25:09,42.805,6.029,4330,1995,194.771,59.566,13.289
2019-06-12T09:28:09,42.805,6.029,4330,1995,194.832,59.584,13.289
2019-06-12T09:31:09,42.805,6.029,4330,1995,194.823,59.583,13.290
2019-06-12T09:34:09,42.805,6.029,4330,1995,194.833,59.584,13.289
2019-06-12T09:37:09,42.805,6.029,4330,1995,194.859,59.592,13.289
2019-06-12T09:40:09,42.805,6.029,4330,1995,194.863,59.593,13.289
2019-06-12T09:43:09,42.805,6.029,4330,1995,194.861,59.592,13.288
2019-06-12T09:46:09,42.805,6.029,4330,1995,194.842,59.588,13.290
2019-06-12T09:49:09,42.805,6.029,4330,1995,194.835,59.585,13.289
2019-06-12T09:52:09,42.805,6.029,4330,1995,194.817,59.579,13.289
2019-06-12T09:55:09,42.805,6.029,4330,1995,194.834,59.584,13.289
2019-06-12T09:58:09,42.805,6.029,4330,1995,194.733,59.553,13.289
2019-06-12T10:01:09,42.805,6.029,4330,1995,194.829,59.582,13.288
2019-06-12T10:04:09,42.805,6.029,4330,1995,194.778,59.567,13.289
2019-06-12T10:07:09,42.805,6.029,4330,1995,194.823,59.580,13.289
2019-06-12T10:10:09,42.805,6.029,4330,1995,194.762,59.562,13.289
2019-06-12T10:13:09,42.805,6.029,4330,1995,194.780,59.567,13.288
2019-06-12T10:16:09,42.805,6.029,4330,1995,194.802,59.574,13.289
2019-06-12T10:19:09,42.805,6.029,4330,1995,194.823,59.580,13.288
2019-06-12T10:22:09,42.805,6.029,4330,1995,194.867,59.595,13.289
2019-06-12T10:25:09,42.805,6.029,4330,1995,194.851,59.589,13.289
2019-06-12T10:28:09,42.805,6.029,4330,1995,194.845,59.587,13.289
2019-06-12T10:31:09,42.805,6.029,4330,1995,194.824,59.582,13.290
2019-06-12T10:34:09,42.805,6.029,4330,1995,194.828,59.583,13.289
2019-06-12T10:37:09,42.805,6.029,4330,1995,194.748,59.561,13.291
2019-06-12T10:40:09,42.805,6.029,4330,1995,194.804,59.575,13.289
2019-06-12T10:43:09,42.805,6.029,4330,1995,194.749,59.559,13.290
2019-06-12T10:43:46,42.805,6.029,4330,1995,194.766,59.565,13.290
2019-06-12T10:46:09,42.805,6.029,4330,1995,194.806,59.577,13.290
2019-06-12T10:46:50,42.805,6.029,4330,1995,194.830,59.585,13.290
2019-06-12T10:49:09,42.805,6.029,4330,1995,194.754,59.564,13.292
2019-06-12T10:49:54,42.805,6.029,4330,1995,194.803,59.579,13.292
2019-06-12T10:52:09,42.805,6.029,4330,1995,194.791,59.575,13.292
2019-06-12T10:52:58,42.805,6.029,4330,1995,194.805,59.578,13.291
2019-06-12T10:55:09,42.805,6.029,4330,1995,194.777,59.570,13.291
2019-06-12T10:56:02,42.805,6.029,4330,1995,194.758,59.563,13.290
2019-06-12T10:58:09,42.805,6.029,4330,1995,194.790,59.576,13.293
2019-06-12T10:59:06,42.805,6.029,4330,1995,194.779,59.572,13.293
2019-06-12T11:01:09,42.805,6.029,4330,1995,194.787,59.575,13.292
2019-06-12T11:04:09,42.805,6.029,4330,1995,194.829,59.585,13.291
2019-06-12T11:07:09,42.805,6.029,4330,1995,194.811,59.578,13.290
2019-06-12T11:10:09,42.805,6.029,4330,1995,194.787,59.572,13.291
2019-06-12T11:13:09,42.805,6.029,4330,1995,194.693,59.542,13.290
2019-06-12T11:16:09,42.805,6.029,4330,1995,194.701,59.546,13.290
2019-06-12T11:19:09,42.805,6.029,4330,1995,194.755,59.561,13.290
2019-06-12T11:22:09,42.805,6.029,4330,1995,194.729,59.554,13.291
2019-06-12T11:25:09,42.805,6.029,4330,1995,194.754,59.562,13.291
2019-06-12T11:28:09,42.805,6.029,4330,1995,194.702,59.545,13.290
2019-06-12T11:31:09,42.805,6.029,4330,1995,194.720,59.551,13.290
2019-06-12T11:34:09,42.805,6.029,4330,1995,194.756,59.561,13.289
2019-06-12T11:37:09,42.805,6.029,4330,1995,194.784,59.571,13.290
2019-06-12T11:40:09,42.805,6.029,4330,1995,194.774,59.566,13.289
2019-06-12T11:43:09,42.805,6.029,4330,1995,194.740,59.556,13.289
2019-06-12T11:46:09,42.805,6.029,4330,1995,194.724,59.551,13.290
2019-06-12T11:49:09,42.805,6.029,4330,1995,194.739,59.556,13.289
2019-06-12T11:52:09,42.805,6.029,4330,1995,194.744,59.556,13.289
2019-06-12T11:55:09,42.805,6.029,4330,1995,194.656,59.530,13.289
2019-06-12T11:58:09,42.805,6.029,4330,1995,194.728,59.551,13.289
2019-06-12T12:01:09,42.805,6.029,4330,1995,194.683,59.538,13.289
2019-06-12T12:04:09,42.805,6.029,4330,1995,194.724,59.550,13.288
2019-06-12T12:07:09,42.805,6.029,4330,1995,194.702,59.545,13.290
2019-06-12T12:10:09,42.805,6.029,4330,1995,194.714,59.547,13.289
2019-06-12T12:13:09,42.805,6.029,4330,1995,194.746,59.557,13.289
2019-06-12T12:16:09,42.805,6.029,4330,1995,194.787,59.569,13.288
2019-06-12T12:19:09,42.805,6.029,4330,1995,194.724,59.550,13.289
2019-06-12T12:22:09,42.805,6.029,4330,1995,194.813,59.578,13.289
2019-06-12T12:25:09,42.805,6.029,4330,1995,194.716,59.548,13.289
2019-06-12T12:28:09,42.805,6.029,4330,1995,194.719,59.549,13.289
2019-06-12T12:31:09,42.805,6.029,4330,1995,194.780,59.568,13.289
2019-06-12T12:34:09,42.805,6.029,4330,1995,194.781,59.569,13.290
2019-06-12T12:37:09,42.805,6.029,4330,1995,194.703,59.546,13.290
2019-06-12T12:40:09,42.805,6.029,4330,1995,194.757,59.560,13.289
2019-06-12T12:43:09,42.805,6.029,4330,1995,194.804,59.575,13.289
2019-06-12T12:46:09,42.805,6.029,4330,1995,194.733,59.553,13.289
2019-06-12T12:49:09,42.805,6.029,4330,1995,194.772,59.565,13.289
2019-06-12T12:52:09,42.805,6.029,4330,1995,194.785,59.570,13.290
2019-06-12T12:55:09,42.805,6.029,4330,1995,194.733,59.554,13.289
2019-06-12T12:58:09,42.805,6.029,4330,1995,194.772,59.566,13.289
2019-06-12T13:01:09,42.805,6.029,4330,1995,194.735,59.555,13.290
2019-06-12T13:04:09,42.805,6.029,4330,1995,194.777,59.568,13.289
2019-06-12T13:07:09,42.805,6.029,4330,1995,194.791,59.573,13.291
2019-06-12T13:10:09,42.805,6.029,4330,1995,194.768,59.566,13.290
2019-06-12T13:13:09,42.805,6.029,4330,1995,194.782,59.569,13.290
2019-06-12T13:16:09,42.805,6.029,4330,1995,194.889,59.602,13.289
2019-06-12T13:19:09,42.805,6.029,4330,1995,194.756,59.561,13.289
2019-06-12T13:22:09,42.805,6.029,4330,1995,194.815,59.579,13.290
2019-06-12T13:25:09,42.805,6.029,4330,1995,194.759,59.563,13.290
2019-06-12T13:28:09,42.805,6.029,4330,1995,194.765,59.566,13.291
2019-06-12T13:31:09,42.805,6.029,4330,1995,194.735,59.555,13.290
2019-06-12T13:34:09,42.805,6.029,4330,1995,194.720,59.551,13.290
2019-06-12T13:37:09,42.805,6.029,4330,1995,194.688,59.542,13.291
2019-06-12T13:40:09,42.805,6.029,4330,1995,194.743,59.559,13.291
2019-06-12T13:43:09,42.805,6.029,4330,1995,194.746,59.559,13.290
2019-06-12T13:46:09,42.805,6.029,4330,1995,194.732,59.554,13.290
2019-06-12T13:49:09,42.805,6.029,4330,1995,194.722,59.550,13.289
2019-06-12T13:52:09,42.805,6.029,4330,1995,194.655,59.530,13.290
2019-06-12T13:55:09,42.805,6.029,4330,1995,194.656,59.530,13.289
2019-06-12T13:58:09,42.805,6.029,4330,1995,194.736,59.554,13.288
2019-06-12T14:01:09,42.805,6.029,4330,1995,194.705,59.544,13.288
2019-06-12T14:04:09,42.805,6.029,4330,1995,194.676,59.536,13.289
2019-06-12T14:07:09,42.805,6.029,4330,1995,194.682,59.537,13.288
2019-06-12T14:10:09,42.805,6.029,4330,1995,194.695,59.542,13.289
2019-06-12T14:13:09,42.805,6.029,4330,1995,194.687,59.539,13.288
2019-06-12T14:16:09,42.805,6.029,4330,1995,194.665,59.532,13.288
2019-06-12T14:19:09,42.805,6.029,4330,1995,194.646,59.526,13.288
2019-06-12T14:22:09,42.805,6.029,4330,1995,194.689,59.539,13.288
2019-06-12T14:25:09,42.805,6.029,4330,1995,194.646,59.526,13.289
2019-06-12T14:28:09,42.805,6.029,4330,1995,194.669,59.533,13.289
2019-06-12T14:31:09,42.805,6.029,4330,1995,194.711,59.546,13.289
2019-06-12T14:34:09,42.805,6.029,4330,1995,194.683,59.538,13.289
2019-06-12T14:37:09,42.805,6.029,4330,1995,194.629,59.521,13.289
2019-06-12T14:40:09,42.805,6.029,4330,1995,194.669,59.534,13.289
2019-06-12T14:43:09,42.805,6.029,4330,1995,194.684,59.538,13.288
2019-06-12T14:46:09,42.805,6.029,4330,1995,194.743,59.556,13.288
2019-06-12T14:49:09,42.805,6.029,4330,1995,194.776,59.566,13.289
2019-06-12T14:52:09,42.805,6.029,4330,1995,194.713,59.547,13.289
2019-06-12T14:55:09,42.805,6.029,4330,1995,194.787,59.569,13.288
2019-06-12T14:58:09,42.805,6.029,4330,1995,194.755,59.560,13.289
2019-06-12T15:01:09,42.805,6.029,4330,1995,194.767,59.564,13.289
2019-06-12T15:04:09,42.805,6.029,4330,1995,194.720,59.550,13.290
2019-06-12T15:07:09,42.805,6.029,4330,1995,194.766,59.563,13.288
2019-06-12T15:10:09,42.805,6.029,4330,1995,194.800,59.575,13.290
2019-06-12T15:13:09,42.805,6.029,4330,1995,194.726,59.551,13.288
2019-06-12T15:16:09,42.805,6.029,4330,1995,194.732,59.554,13.289
2019-06-12T15:19:09,42.805,6.029,4330,1995,194.779,59.568,13.290
2019-06-12T15:22:09,42.805,6.029,4330,1995,194.813,59.579,13.290
2019-06-12T15:25:09,42.805,6.029,4330,1995,194.786,59.569,13.289
2019-06-12T15:28:09,42.805,6.029,4330,1995,194.823,59.581,13.289
2019-06-12T15:31:09,42.805,6.029,4330,1995,194.834,59.585,13.289
2019-06-12T15:34:09,42.805,6.029,4330,1995,194.796,59.574,13.290
2019-06-12T15:37:09,42.805,6.029,4330,1995,194.715,59.548,13.289
2019-06-12T15:40:09,42.805,6.029,4330,1995,194.739,59.557,13.290
2019-06-12T15:43:09,42.805,6.029,4330,1995,194.807,59.577,13.289
2019-06-12T15:46:09,42.805,6.029,4330,1995,194.773,59.566,13.289
2019-06-12T15:49:09,42.805,6.029,4330,1995,194.733,59.555,13.290
2019-06-12T15:52:09,42.805,6.029,4330,1995,194.861,59.593,13.289
2019-06-12T15:55:09,42.805,6.029,4330,1995,194.794,59.572,13.289
2019-06-12T15:58:09,42.805,6.029,4330,1995,194.810,59.577,13.289
2019-06-12T16:01:09,42.805,6.029,4330,1995,194.795,59.573,13.290
2019-06-12T16:04:09,42.805,6.029,4330,1995,194.804,59.575,13.289
2019-06-12T16:07:09,42.805,6.029,4330,1995,194.789,59.570,13.289
2019-06-12T16:10:09,42.805,6.029,4330,1995,194.797,59.572,13.289
2019-06-12T16:13:09,42.805,6.029,4330,1995,194.844,59.586,13.288
2019-06-12T16:16:09,42.805,6.029,4330,1995,194.747,59.557,13.288
2019-06-12T16:19:09,42.805,6.029,4330,1995,194.813,59.577,13.288
2019-06-12T16:22:09,42.805,6.029,4330,1995,194.811,59.576,13.288
2019-06-12T16:25:09,42.805,6.029,4330,1995,194.745,59.556,13.288
2019-06-12T16:28:09,42.805,6.029,4330,1995,194.733,59.552,13.288
2019-06-12T16:31:09,42.805,6.029,4330,1995,194.656,59.529,13.289
2019-06-12T16:34:09,42.805,6.029,4330,1995,194.691,59.539,13.288
2019-06-12T16:40:09,42.805,6.029,4330,1995,194.718,59.547,13.288
2019-06-12T16:43:09,42.805,6.029,4330,1995,194.755,59.559,13.289
2019-06-12T16:46:09,42.805,6.029,4330,1995,194.778,59.567,13.288
2019-06-12T16:49:09,42.805,6.029,4330,1995,194.718,59.548,13.288
2019-06-12T16:52:09,42.805,6.029,4330,1995,194.752,59.559,13.288
2019-06-12T16:55:09,42.805,6.029,4330,1995,194.791,59.570,13.289
2019-06-12T16:58:09,42.805,6.029,4330,1995,194.791,59.571,13.289
2019-06-12T17:01:09,42.805,6.029,4330,1995,194.772,59.565,13.288
2019-06-12T17:04:09,42.805,6.029,4330,1995,194.815,59.578,13.289
2019-06-12T17:07:09,42.805,6.029,4330,1995,194.897,59.603,13.289
2019-06-12T17:10:09,42.805,6.029,4330,1995,194.888,59.602,13.290
2019-06-12T17:13:09,42.805,6.029,4330,1995,194.848,59.588,13.289
2019-06-12T17:16:09,42.805,6.029,4330,1995,194.889,59.601,13.289
2019-06-12T17:19:09,42.805,6.029,4330,1995,194.848,59.588,13.288
2019-06-12T17:22:09,42.805,6.029,4330,1995,194.877,59.597,13.289
2019-06-12T17:25:09,42.805,6.029,4330,1995,194.902,59.605,13.289
2019-06-12T17:28:09,42.805,6.029,4330,1995,194.876,59.596,13.288
2019-06-12T17:31:09,42.805,6.029,4330,1995,194.897,59.603,13.288
2019-06-12T17:34:09,42.805,6.029,4330,1995,194.847,59.588,13.289
2019-06-12T17:37:09,42.805,6.029,4330,1995,194.872,59.596,13.289
2019-06-12T17:40:09,42.805,6.029,4330,1995,194.871,59.596,13.289
2019-06-12T17:43:09,42.805,6.029,4330,1995,194.922,59.610,13.288
2019-06-12T17:46:09,42.805,6.029,4330,1995,194.914,59.609,13.289
2019-06-12T17:49:09,42.805,6.029,4330,1995,194.854,59.591,13.289
2019-06-12T17:52:09,42.805,6.029,4330,1995,194.901,59.604,13.289
2019-06-12T17:55:09,42.805,6.029,4330,1995,194.918,59.610,13.289